Tracking 18840 objects as of 17-November-2017
HD Live streaming from Space Station
objects crossing your sky now

SL-3 R/B

Track SL-3 R/B now!
10-day predictions
SL-3 R/B is classified as:


NORAD ID: 13154
Int'l Code: 1982-039B
Perigee: 550.5 km
Apogee: 607.3 km
Inclination: 81.2 °
Period: 96.1 minutes
Semi major axis: 6949 km
RCS: 5.8414 m2 (large)
Launch date: May 5, 1982
Source: Commonwealth of Independent States (former USSR) (CIS)
Launch site: PLESETSK MISSILE AND SPACE COMPLEX (PKMTR)

Note: This is a ROCKET BODY
aabbcc
Your satellite tracking list
Your tracking list is empty




NASA's NSSDC Master Catalog

Two Line Element Set (TLE):
1 13154U 82039B   17321.47791325  .00000443  00000-0  34650-4 0  9991
2 13154  81.1857  57.3882 0040871 151.3359 209.0120 14.98414739926692
Source of the keplerian elements: AFSPC